DELTA 1 DEB, 42083

Orbit data source: Space-Track

DELTA 1 DEB, 42083 is space debris in SSO originally from a launch on Sun, 15 Dec 1968 UTC launched from the Air Force Western Test Range (AFWTR). Debris objects in space refer to the collection of defunct objects orbiting the Earth. Examples of debris include non-operational satellites, rocket bodies, and fragments generated from explosions, collisions, or faulty payload assembly.

Loading next visibility...
Identifier
42083, 1968-114K
Orbit
SSO
Country
Flag of USUS
Related business
Manufacturer
Aerojet
Mission
Spacecraft
Bus & Motor
Unknown
Mass
Unknown
Launch date (UTC)
1968-12-15 (58 years ago)
Launch vehicle
Unknown
Launch site
Air Force Western Test Range (AFWTR)
Object type
Payload
Rocket body
Debris
Shape & HBR
Unknown shape, 0.054 m
Radar Cross Section
Small (<0.1 m²)

Expand to show TLE details & history
Last TLE update: 7 hours ago

TLE from 7 hours ago
0 DELTA 1 DEB
1 42083U 68114K   26266.87388595  .00000226  00000-0  74664-3 0  9992
2 42083 101.8592 313.7382 0281402 259.7036 280.8009 13.02316139 61015
Epoch: 2026-09-23T20:58Z
TLE epoch observation values (Epoch: 2026-09-23T20:58:23.746Z)
Latitude
2.53177°
Longitude
176.94981°
Altitude
1,221.005 km
Speed
7.26 km/s
True Right ascension
08h 57m 04s
True Declination
2° 31' 03"
Sunlit
Object was in daylight at epoch
Visualization orbit readout
Latitude
Unknown
Longitude
Unknown
Altitude
Unknown
Speed
Unknown
Apparent Right ascension
Unknown
Apparent Declination
Unknown
Sunlit
N/A
Visualization observer readout
Local Sidereal Time
21:29:35
Azimuth
Unknown
Elevation
Unknown
Doppler factor
Unknown
Orbital elements
Apogee altitude
1,465.183 km
Perigee altitude
1,035.839 km
Semi-major axis
7,628.648 km
Eccentricity
0.02814
Inclination
101.8592°
RAAN
313.7382°
Arg. of periapsis
259.7036°
True anomaly
277.61403°
Mean anomaly
280.8009°
Eccentric anomaly
279.20937°
Mean motion
3.25741 °/min
Orbital period
110.52 mins
BSTAR
0.00074664
Loading maneuver chart data...
Computing Atmospheric mass density...
Loading historical data...
Loading historical data...
Loading historical data...
Loading historical data...
Loading historical data...
Loading historical data...
Loading historical data...

Documentation

Showing up to 5 results
|